Theta_e
317 318 317 317 316 315 315 315 314 314 314 313 313 313 312 312 312 313 314 314 315 316 316 317 317 316 315 311 308 316 324 325 319 313 310 309 307 306 303 304 306 304 306 307 308 308 308
318 318 318 317 316 316 315 315 314 314 313 313 313 312 312 312 312 312 313 314 314 314 315 317 317 314 315 304 315 316 315 314 314 312 310 310 308 309 304 303 303 305 305 305 306 307 308
318 318 318 318 317 316 315 315 314 314 313 313 313 312 311 311 311 312 312 313 313 314 316 317 317 315 310 307 315 317 316 314 314 312 308 311 311 307 307 304 308 305 301 303 304 304 303
317 318 318 318 317 316 315 315 314 313 313 313 313 312 310 310 311 312 312 312 313 314 318 318 316 315 305 315 315 313 315 313 316 315 312 312 312 308 306 308 305 302 302 297 303 305 305
317 318 318 318 317 317 316 315 314 313 313 313 312 311 310 310 311 312 312 312 313 316 317 316 315 313 305 314 309 312 313 308 310 311 312 312 310 305 305 300 298 300 294 296 299 306 304
317 317 317 318 317 316 316 315 314 313 312 313 312 311 310 310 311 312 312 311 316 316 317 317 314 306 309 304 308 309 313 311 308 307 306 306 305 301 301 298 290 292 294 296 296 301 302
316 317 316 318 317 316 316 315 314 313 312 312 312 310 310 310 311 312 311 314 310 311 310 303 303 303 304 309 310 308 310 307 308 305 299 303 298 295 297 299 298 297 296 295 298 301 300
316 317 317 318 317 316 315 315 314 313 312 311 310 310 310 310 311 312 312 307 306 307 299 306 306 305 307 308 302 306 310 303 302 297 301 299 295 299 300 299 297 296 294 294 298 301 300
316 316 316 316 316 315 316 315 313 312 311 310 309 309 309 310 311 310 311 308 314 312 300 302 304 304 305 306 302 302 305 303 300 297 298 296 298 301 299 297 296 296 294 295 295 299 300
316 316 316 316 315 315 316 314 313 312 311 309 309 308 309 309 307 312 310 312 313 313 297 299 301 303 305 305 299 306 307 303 301 297 299 298 301 298 298 296 297 292 298 297 297 294 290
316 316 316 315 315 315 315 313 312 311 310 309 308 308 309 307 313 309 310 314 313 311 289 298 299 308 304 300 301 302 308 305 298 298 299 296 297 296 295 296 298 295 301 298 297 295 293
316 317 316 315 315 315 314 312 311 310 309 308 307 308 308 312 315 311 311 312 311 298 288 294 299 298 298 299 299 303 304 307 306 300 301 299 303 300 298 299 300 300 298 297 297 294 286
316 316 315 315 315 314 313 311 310 309 308 307 306 307 308 313 305 310 313 309 296 291 298 294 295 297 295 295 297 300 299 299 295 291 293 297 297 301 302 296 300 298 295 287 286 285 285
316 315 315 315 314 314 312 311 309 308 307 306 305 305 312 313 311 312 311 301 290 295 294 297 295 294 293 296 296 297 298 295 299 296 292 289 288 296 301 297 295 295 295 287 281 282 285
315 314 315 315 314 314 311 309 308 307 306 305 304 315 315 310 311 311 305 294 292 293 295 292 293 291 292 294 295 296 295 295 296 298 289 289 289 299 299 300 298 294 291 296 290 291 287
315 314 314 314 314 313 311 309 308 307 306 304 307 310 312 310 312 309 299 292 293 295 294 294 289 292 288 291 292 293 293 298 296 298 299 294 288 296 297 298 299 296 298 290 292 281 281
314 314 314 314 314 312 310 308 307 307 305 304 309 305 310 310 311 303 295 292 293 296 297 293 291 290 291 291 291 290 292 297 298 297 299 296 292 292 296 294 293 294 293 293 293 290 284
314 314 314 314 314 312 309 308 307 306 304 305 307 300 310 310 299 299 294 294 294 295 298 296 295 294 293 294 291 291 291 294 299 297 292 296 291 288 291 298 300 298 294 295 288 286 289
314 314 314 314 313 311 309 307 307 305 304 302 302 302 310 308 293 294 298 296 296 295 296 294 293 296 297 292 287 293 294 298 298 294 291 295 290 286 289 295 298 293 295 294 292 292 287
314 314 314 314 314 311 308 307 306 305 304 304 303 298 302 302 301 296 295 295 295 299 297 297 296 298 294 294 294 291 293 295 297 296 299 296 288 285 284 289 293 290 291 292 290 285 286
314 314 314 314 314 310 307 306 306 305 304 305 303 298 299 293 296 297 298 296 294 294 298 299 297 295 293 287 290 292 295 294 295 298 295 292 286 290 291 293 293 292 292 291 289 290 287
313 314 314 314 314 310 306 305 305 304 303 307 299 297 298 296 299 297 294 296 295 296 296 296 294 295 296 290 291 288 291 292 289 295 292 293 286 292 289 292 293 290 293 292 289 290 291
312 313 313 314 314 310 306 304 304 304 304 306 306 305 299 297 298 296 295 295 295 298 299 299 296 295 294 296 298 298 298 298 297 291 290 287 287 287 284 290 289 286 285 287 288 290 290
312 312 313 313 313 310 306 303 303 303 302 307 306 302 298 294 296 295 295 296 295 297 297 300 300 297 301 305 304 304 303 301 300 299 294 288 287 287 285 288 281 285 291 290 288 291 292
311 312 312 313 313 310 306 304 303 301 302 304 309 302 298 294 296 296 295 296 298 301 300 299 300 302 305 301 294 295 297 297 297 299 297 291 286 285 283 284 287 286 288 285 284 285 293
310 311 311 312 312 311 307 305 304 302 301 301 310 306 300 296 297 297 296 298 297 298 299 300 305 307 303 298 293 288 287 290 290 292 296 294 292 285 284 281 280 284 289 292 291 283 293
309 310 311 311 312 312 308 306 304 303 302 301 308 309 301 295 299 300 296 295 299 300 296 299 299 299 301 293 290 289 288 293 289 287 287 287 287 283 284 283 287 289 289 291 282 286 291
308 309 310 310 311 312 309 307 305 303 302 303 307 309 301 296 298 300 301 299 300 299 294 299 295 293 292 290 288 289 290 291 290 292 286 285 283 284 286 284 280 293 288 281 285 287 289
307 308 309 309 310 311 310 307 305 304 302 302 301 308 305 296 297 302 302 304 304 304 301 298 292 289 290 287 291 289 289 291 290 286 293 285 286 283 283 284 292 290 286 290 291 288 290
Wind_Speed
19 20 20 21 21 21 21 21 22 22 22 22 25 26 26 25 24 22 21 20 19 18 17 14 10 7 9 9 2 13 7 11 11 9 7 7 9 10 15 15 15 22 22 24 24 25 24
18 20 20 21 20 20 21 21 21 21 22 23 22 24 25 26 25 24 22 20 18 19 16 9 9 7 10 16 6 2 6 6 9 8 10 7 8 11 13 17 18 19 21 19 20 21 22
19 20 20 20 20 20 21 21 22 22 22 23 22 23 24 25 25 23 21 18 17 18 14 6 7 9 12 12 2 2 5 5 4 8 10 10 8 11 14 17 14 14 20 21 22 19 25
19 19 20 19 20 21 23 22 23 24 22 23 23 23 24 24 24 23 21 17 17 15 7 6 6 11 11 6 6 9 3 8 7 6 9 10 10 15 17 16 21 22 22 22 19 24 23
19 18 19 19 20 21 22 22 23 24 25 24 24 23 24 25 24 22 20 18 17 9 5 6 10 11 12 9 8 7 6 8 10 13 8 8 13 16 16 18 18 20 21 26 25 19 13
20 20 20 21 21 22 21 22 22 23 26 26 26 26 25 25 25 22 19 17 4 7 9 9 8 8 9 6 4 6 8 6 12 11 15 17 16 15 16 17 18 23 24 24 20 17 18
19 20 23 21 21 21 21 22 23 23 24 26 28 28 27 26 24 20 16 8 5 10 11 15 16 17 17 10 4 12 14 7 15 11 15 15 16 18 24 23 24 23 26 26 26 26 26
17 19 20 21 22 22 21 23 23 23 25 26 29 28 28 27 24 20 10 11 10 9 14 17 11 12 10 9 9 12 8 12 13 17 19 17 20 24 24 27 27 26 28 27 28 27 24
17 18 20 20 20 21 21 23 23 23 24 25 27 28 28 27 22 10 6 8 10 10 9 1 0 5 3 8 12 13 3 11 19 19 18 21 23 23 22 22 23 23 25 28 28 26 22
17 16 20 19 19 21 20 22 24 25 26 26 27 28 27 27 7 7 2 12 12 6 8 11 8 5 7 6 15 3 12 8 16 21 21 22 20 16 18 21 18 22 27 21 25 19 18
17 17 18 19 19 20 20 23 24 25 26 27 28 29 26 12 12 9 11 11 11 8 8 5 6 6 5 12 16 2 5 11 17 20 19 21 22 23 20 19 21 17 24 19 22 21 20
17 17 17 20 21 20 19 22 25 26 27 27 30 28 25 4 10 13 14 12 7 9 2 2 3 4 16 15 17 6 12 12 17 18 18 23 19 18 20 17 19 16 15 20 19 18 19
16 17 19 22 22 20 18 21 24 27 28 29 32 26 16 10 10 14 11 10 9 6 5 5 14 17 22 21 11 7 13 14 9 11 14 19 22 19 18 16 20 12 15 9 14 14 15
16 17 18 20 22 19 17 20 24 26 28 30 33 26 5 6 13 10 10 12 10 9 16 20 18 24 22 9 10 13 15 15 9 7 12 12 14 4 6 9 15 9 11 7 16 17 20
16 16 16 19 19 18 17 20 23 26 29 30 33 1 5 10 10 8 11 6 12 14 17 18 21 15 11 11 16 14 15 15 5 3 5 12 8 10 17 15 15 18 20 21 21 19 20
13 13 15 17 17 15 17 19 23 26 29 30 11 6 3 13 8 9 8 7 10 16 15 13 17 10 17 19 15 13 12 6 7 5 7 8 17 15 17 6 14 19 18 16 7 8 18
13 13 14 16 16 12 16 18 22 26 30 35 7 6 8 13 7 4 3 7 12 13 10 10 15 18 16 17 14 14 10 15 8 10 12 16 11 14 19 17 20 16 15 17 12 12 13
12 13 14 14 15 11 13 15 19 22 29 15 7 6 8 11 7 7 9 8 7 10 11 11 8 12 11 11 14 17 16 6 10 10 13 15 6 14 24 25 24 20 21 17 10 10 11
12 12 14 13 13 10 11 14 18 19 17 10 9 6 6 11 7 8 8 9 5 10 11 8 9 11 14 16 8 13 16 6 12 5 6 7 6 11 11 7 10 5 10 11 16 15 20
12 13 13 13 12 9 10 13 17 19 18 9 6 6 5 6 4 9 11 9 12 8 9 7 14 14 11 13 14 13 22 7 6 20 21 14 6 14 17 21 22 20 18 14 16 7 14
13 13 13 12 12 7 8 12 15 19 21 8 5 6 4 8 9 12 11 11 13 11 5 12 8 11 16 5 17 20 16 23 11 19 3 4 7 16 23 28 28 28 28 21 16 13 15
15 15 14 12 10 6 6 9 13 17 23 5 8 6 6 13 9 11 5 11 12 12 9 11 15 20 19 16 17 24 20 18 7 10 2 5 7 16 25 24 26 22 18 4 0 10 12
16 16 16 14 10 8 5 5 9 14 13 5 4 2 5 11 8 9 6 10 16 16 8 10 13 17 22 21 20 24 23 25 18 10 5 3 5 5 17 14 22 15 5 5 4 10 14
17 16 17 16 11 10 8 4 5 8 11 7 5 7 6 10 12 11 14 12 15 15 16 19 14 15 14 27 28 21 21 18 16 14 11 6 5 5 9 16 5 6 7 13 17 23 14
18 17 18 17 13 12 11 8 6 4 7 8 3 5 5 9 14 15 13 14 15 13 12 13 10 11 15 17 9 11 1 6 7 8 2 8 5 6 6 10 11 5 9 16 16 24 11
17 18 18 18 15 13 14 11 9 7 6 6 1 5 5 6 1 14 16 14 12 10 10 10 14 15 10 5 5 6 5 9 5 3 5 6 6 4 6 7 5 6 21 26 22 10 5
17 17 18 18 17 13 16 14 12 9 8 7 2 3 4 7 10 8 11 12 9 8 7 13 12 8 9 5 6 4 6 11 7 9 7 8 4 8 9 6 0 17 21 19 8 8 24
19 19 19 19 17 14 17 16 13 11 9 9 3 5 6 6 15 17 15 14 10 8 3 9 8 4 4 5 4 5 5 6 5 11 5 5 8 5 7 6 6 24 9 10 10 19 21
19 19 19 18 17 15 18 18 16 13 10 8 7 7 5 6 10 18 22 22 22 16 10 2 2 1 2 3 3 3 4 5 10 4 6 3 1 5 4 6 15 15 13 12 14 16 15
Wind_Direction
15 12 10 7 5 1 359 356 352 350 347 347 345 345 342 339 337 335 333 330 327 324 322 309 302 308 273 242 65 124 174 209 255 256 274 277 283 280 264 275 274 257 258 263 268 268 267
11 9 6 5 0 360 358 356 353 349 345 343 342 341 337 334 333 331 328 325 322 321 316 291 284 296 257 277 74 131 234 243 248 250 284 261 286 326 301 272 268 282 285 284 283 274 261
9 7 4 360 356 357 357 355 355 350 344 339 338 337 334 331 328 326 322 318 316 314 303 266 274 282 279 278 35 264 232 298 327 283 284 294 309 282 299 295 269 279 277 266 261 260 258
6 3 357 355 354 356 355 353 352 351 345 338 336 334 333 331 327 322 317 314 309 303 278 242 245 272 264 112 329 248 258 262 202 238 268 280 282 272 270 276 276 268 261 265 263 251 240
2 357 354 349 350 350 352 353 350 347 344 339 334 334 333 332 327 319 311 306 298 275 231 221 247 222 264 103 232 344 276 295 305 289 225 259 264 269 268 259 261 252 254 258 259 258 263
359 353 351 349 348 346 345 352 350 344 342 339 335 336 334 333 326 316 306 294 226 207 214 225 256 249 236 242 48 315 259 261 282 285 272 241 242 260 253 247 254 266 270 286 285 298 292
354 347 352 348 344 339 340 345 347 344 342 340 335 336 334 333 328 314 306 183 249 190 226 291 291 280 298 273 290 255 265 255 272 258 262 269 273 264 264 263 271 277 277 275 280 278 280
344 341 345 346 342 336 338 340 344 341 341 339 335 334 334 333 327 314 285 24 27 312 300 283 272 271 271 297 269 264 295 263 269 285 290 279 262 260 264 271 271 271 271 274 274 273 270
338 344 347 342 335 335 336 338 340 339 341 338 335 333 333 329 324 290 348 14 325 314 275 325 304 272 179 219 265 280 250 275 282 280 278 277 286 296 280 263 272 259 261 264 270 280 282
333 339 348 339 335 339 335 336 337 338 339 338 334 332 331 324 296 341 23 349 324 352 270 132 175 139 203 261 273 8 256 299 283 282 285 278 286 282 292 277 267 264 268 276 273 264 264
330 330 332 334 336 341 337 337 336 336 338 337 333 334 328 330 315 341 336 320 335 244 286 90 118 54 256 277 308 221 176 256 281 290 291 285 300 287 260 268 266 280 278 269 290 278 275
330 331 335 339 340 341 338 337 335 335 337 336 331 333 329 196 241 359 321 316 258 234 274 122 301 284 302 317 298 286 272 291 274 270 264 270 275 272 269 266 274 287 281 286 272 261 255
329 331 338 342 342 341 341 336 335 335 335 335 328 326 315 296 337 327 318 268 257 274 73 10 341 324 317 298 309 331 314 298 305 313 298 316 286 259 239 248 253 296 263 271 259 250 252
329 338 341 340 340 337 340 337 336 334 334 333 325 316 192 271 333 326 295 271 274 330 356 344 327 314 289 5 326 316 312 309 336 306 288 289 300 9 333 248 266 245 261 247 282 289 295
339 340 338 336 336 335 341 338 336 334 333 331 314 303 263 0 333 310 282 301 3 355 343 329 311 308 340 341 341 328 322 299 13 317 287 313 278 331 291 274 261 270 257 261 276 285 273
329 336 332 330 334 337 338 339 336 335 333 329 320 303 42 337 332 273 288 318 341 352 342 318 308 324 328 325 326 334 314 337 334 312 278 292 291 283 280 298 265 254 269 279 271 277 270
322 323 327 331 333 339 337 342 335 338 334 320 259 292 37 336 295 305 2 334 335 346 338 328 322 311 312 315 319 314 272 304 28 348 310 293 260 272 289 270 267 263 236 242 270 261 277
313 317 321 327 332 332 336 342 334 341 337 322 295 312 27 329 299 3 10 343 317 325 316 304 293 290 313 318 303 291 267 277 335 352 312 300 283 281 280 281 272 263 273 242 247 249 255
306 308 313 320 327 325 339 341 333 339 354 318 317 290 97 334 12 360 347 313 302 320 325 302 289 290 308 306 303 277 291 312 323 315 282 2 269 292 304 259 31 313 297 331 330 303 265
300 299 305 314 319 323 338 336 334 333 337 307 308 323 359 297 152 345 344 327 325 355 323 309 297 300 311 298 285 276 290 324 323 298 275 267 238 242 264 277 297 281 262 247 258 258 276
295 294 298 305 311 309 327 335 335 331 328 303 350 18 39 307 338 330 306 299 328 343 325 304 302 318 326 273 303 278 310 311 311 296 195 241 257 251 255 263 272 272 273 270 253 247 257
297 294 293 295 299 278 304 330 336 331 327 262 326 345 329 292 295 295 255 345 326 332 329 300 313 312 314 301 282 295 301 296 263 291 176 240 270 285 286 282 280 284 301 246 152 315 271
300 298 296 289 283 238 240 301 327 332 326 316 19 191 285 291 293 295 3 327 313 309 317 288 312 305 302 308 308 288 276 269 251 245 265 257 272 290 290 306 309 282 42 20 294 261 264
306 303 299 293 280 228 218 231 294 327 338 310 24 297 294 288 313 328 315 303 308 314 300 297 300 298 299 315 302 285 247 240 244 242 185 231 240 244 285 298 255 118 20 347 325 302 309
310 307 304 298 282 218 210 215 231 266 307 293 346 305 308 287 317 293 329 312 306 292 304 333 352 329 324 311 315 316 106 174 241 255 328 200 279 289 289 310 268 59 14 335 325 305 291
313 312 309 303 288 219 210 209 217 228 264 272 225 315 282 300 122 328 309 291 305 333 321 330 337 341 333 311 313 315 335 335 317 333 144 285 273 256 300 289 312 6 349 342 318 271 179
315 314 312 308 299 236 206 210 212 214 236 265 290 201 269 277 272 319 305 324 294 336 308 315 341 325 344 342 309 321 322 340 334 325 334 313 307 280 304 284 133 4 356 322 274 358 323
319 315 310 310 299 261 208 206 213 217 226 243 2 172 277 262 290 281 279 284 273 262 288 328 327 42 318 334 341 337 303 328 308 322 333 322 324 342 311 306 343 356 330 328 296 296 291
318 316 311 304 301 281 209 204 200 211 223 229 275 162 212 246 281 310 287 269 266 272 294 26 270 280 286 300 354 309 302 313 324 303 352 333 352 313 294 304 298 319 295 291 303 296 301